This demonstration page uses our WeatherBlox Daily Observations layout. Learn more.

Left ArrowRight Arrow

44.8408, -93.29828

Hourly Observations for February 23, 2019

Temp ( °F °C ) Dew Point ( °F °C ) Humidity (%) Winds ( mph kmh ) Pressure ( in mb ) Visibility ( mi km ) Precip ( " mm )
12:53 am 00:53 Cloudy 28 -2.2 19 -7.2 69 69 ESE 7 11 30.17 1022 9 14 0.00 0.00
1:38 am 01:38 Cloudy with Light Snow 28 -2.2 20 -6.7 72 72 SE 13 20 30.18 1022 2 3 0.00 0.00
1:41 am 01:41 Cloudy with Light Snow 28 -2.2 21 -6.1 75 75 SE 12 19 30.18 1022 1 2 0.00 0.00
1:50 am 01:50 Mostly Cloudy with Light Snow 27 -3 21 -6 80 80 SE 10 17 30.19 1022 1 1 0.01 0.25
1:53 am 01:53 Mostly Cloudy with Light Snow 27 -2.8 23 -5 85 85 SE 9 15 30.17 1022 1 1 0.01 0.25
2:02 am 02:02 Mostly Cloudy with Light Snow 27 -2.8 23 -5 85 85 ESE 10 17 30.19 1022 1 2 0.01 0.25
2:06 am 02:06 Mostly Cloudy with Light Snow 27 -2.8 23 -5 85 85 ESE 9 15 30.19 1022 1 1 0.01 0.25
2:16 am 02:16 Cloudy with Light Snow 26 -3.3 23 -5 88 88 ESE 9 15 30.19 1022 1 2 0.02 0.51
2:26 am 02:26 Cloudy with Light Snow 26 -3.3 24 -4.4 92 92 ESE 9 15 30.18 1022 2 3 0.02 0.51
2:29 am 02:29 Cloudy with Light Snow 26 -3.3 24 -4.4 92 92 ESE 9 15 30.17 1022 2 3 0.02 0.51
2:53 am 02:53 Cloudy with Light Snow 27 -2.8 23 -5 85 85 ESE 10 17 30.13 1020 3 4 0.03 0.76
3:11 am 03:11 Cloudy with Light Snow 27 -2.8 23 -5 85 85 ESE 14 22 30.14 1021 4 6 0.00 0.03
3:53 am 03:53 Cloudy with Light Snow 27 -2.8 23 -5 85 85 SE 13 20 30.09 1019 3 5 0.00 0.03
4:17 am 04:17 Cloudy with Light Snow 27 -2.8 23 -5 85 85 SE 10 17 30.11 1019 3 4 0.00 0.03
4:19 am 04:19 Cloudy with Light Snow 27 -2.8 23 -5 85 85 SE 12 19 30.11 1019 3 4 0.00 0.03
4:30 am 04:30 Cloudy with Light Snow 27 -2.8 24 -4.4 89 89 ESE 10 17 30.10 1019 2 3 0.00 0.03
4:39 am 04:39 Cloudy with Light Snow 27 -2.8 24 -4.4 89 89 ESE 13 20 30.10 1019 3 4 0.00 0.03
4:53 am 04:53 Cloudy with Light Snow 27 -2.8 24 -4.4 89 89 ESE 10 17 30.08 1019 3 4 0.00 0.03
5:00 am 05:00 Cloudy with Light Snow 27 -2.8 24 -4.4 89 89 ESE 10 17 30.10 1019 3 5 0.00 0.03
5:18 am 05:18 Cloudy with Light Snow 27 -2.8 24 -4.4 89 89 ESE 9 15 30.10 1019 3 4 0.00 0.03
5:32 am 05:32 Cloudy with Light Snow 27 -2.8 24 -4.4 89 89 ESE 8 13 30.09 1019 3 4 0.00 0.03
5:37 am 05:37 Cloudy with Light Snow 27 -2.8 24 -4.4 89 89 E 9 15 30.09 1019 1 2 0.01 0.25
5:53 am 05:53 Cloudy with Light Snow 27 -2.8 24 -4.4 89 89 E 10 17 30.05 1018 1 2 0.02 0.51
6:03 am 06:03 Mostly Cloudy with Heavy Snow 27 -2.8 24 -4.4 89 89 E 10 17 30.07 1018 0 0 0.02 0.51
6:10 am 06:10 Mostly Cloudy with Light Snow 27 -2.8 24 -4.4 89 89 E 12 19 30.07 1018 1 1 0.03 0.76
6:36 am 06:36 Cloudy with Light Snow 27 -2.8 24 -4.4 89 89 ESE 12 19 30.06 1018 1 2 0.04 1.02
6:48 am 06:48 Cloudy with Light Snow 27 -3 25 -4 93 93 ESE 14 22 30.05 1017 2 2 0.04 1.02
6:53 am 06:53 Cloudy with Light Snow 27 -2.8 24 -4.4 89 89 ESE 14 22 30.02 1017 2 2 0.04 1.02
7:02 am 07:02 Cloudy with Light Snow 28 -2.2 24 -4.4 85 85 ESE 16 26 30.03 1017 3 4 0.00 0.03
7:33 am 07:33 Cloudy with Mist and Fog 28 -2.2 24 -4.4 85 85 ESE 13 20 30.02 1017 2 3 0.00 0.03
7:46 am 07:46 Cloudy with Mist and Fog 28 -2.2 24 -4.4 85 85 E 13 20 30.01 1016 3 5 0.01 0.25
7:53 am 07:53 Cloudy with Mist and Fog 28 -2.2 24 -4.4 85 85 ESE 9 15 30.00 1016 3 5 0.01 0.25
7:58 am 07:58 Cloudy with Mist and Fog 28 -2.2 24 -4.4 85 85 ESE 9 15 30.02 1017 3 5 0.00 0.00
8:21 am 08:21 Cloudy with Mist and Fog 28 -2.2 25 -3.9 88 88 E 8 13 30.03 1017 4 6 0.00 0.00
8:53 am 08:53 Cloudy with Mist and Fog 29 -1.7 25 -3.9 85 85 ESE 8 13 30.01 1016 4 6 0.00 0.00
9:53 am 09:53 Cloudy with Mist and Fog 29 -1.7 25 -3.9 85 85 ESE 10 17 29.97 1015 3 5 0.00 0.00
10:30 am 10:30 Cloudy with Mist and Fog 29 -1.7 25 -3.9 85 85 ESE 8 13 29.98 1015 3 4 0.00 0.00
10:38 am 10:38 Cloudy with Mist and Fog 29 -1.7 25 -3.9 85 85 ESE 10 17 29.97 1015 3 5 0.00 0.00
10:53 am 10:53 Cloudy with Mist and Fog 30 -1.1 26 -3.3 85 85 ESE 10 17 29.95 1014 3 5 0.00 0.00
11:53 am 11:53 Cloudy with Mist and Fog 30 -1.1 26 -3.3 85 85 SE 6 9 29.92 1013 3 5 0.00 0.00
12:06 pm 12:06 Cloudy with Haze 31 -0.6 26 -3.3 82 82 E 7 11 29.92 1013 3 4 0.00 0.00
12:53 pm 12:53 Cloudy with Mist and Fog 31 -0.6 27 -2.8 85 85 ENE 3 6 29.87 1012 3 4 0.00 0.00
1:04 pm 13:04 Cloudy with Mist and Fog 31 -0.6 27 -2.8 85 85 ENE 5 7 29.89 1012 3 5 0.00 0.00
1:11 pm 13:11 Cloudy with Mist and Fog 31 -0.6 27 -2.8 85 85 E 5 7 29.90 1012 3 4 0.00 0.00
1:53 pm 13:53 Cloudy with Haze 32 0 27 -2.8 82 82 ENE 6 9 29.86 1011 3 4 0.00 0.00
2:18 pm 14:18 Cloudy with Mist and Fog 32 0 28 -2.2 85 85 VRB 6 9 29.85 1011 2 3 0.00 0.00
2:23 pm 14:23 Cloudy with Light Freezing Drizzle 32 0 28 -2.2 85 85 NE 6 9 29.85 1011 2 3 0.00 0.03
2:34 pm 14:34 Cloudy with Light Freezing Drizzle 31 -0.6 28 -2.2 89 89 NNE 7 11 29.84 1010 2 3 0.00 0.03
2:53 pm 14:53 Cloudy 32 0 27 -2.8 82 82 NNE 5 7 29.82 1010 3 4 0.00 0.03
3:44 pm 15:44 Cloudy with Mist and Fog 32 0 28 -2.2 85 85 NE 7 11 29.81 1009 3 5 0.00 0.00
3:53 pm 15:53 Cloudy with Mist and Fog 32 0 28 -2.2 85 85 NNE 9 15 29.79 1009 3 5 0.00 0.00
4:39 pm 16:39 Cloudy with Haze 32 0 27 -2.8 82 82 NNE 10 17 29.78 1008 4 6 0.00 0.00
4:53 pm 16:53 Cloudy with Mist and Fog 31 -0.6 27 -2.8 85 85 NNE 10 17 29.75 1008 4 6 0.00 0.00
5:49 pm 17:49 Cloudy with Haze 30 -1 27 -3 86 86 NNE 13 20 29.75 1007 5 8 0.00 0.00
5:53 pm 17:53 Cloudy with Haze 31 -0.6 26 -3.3 82 82 NNE 9 15 29.73 1007 6 10 0.00 0.00
6:53 pm 18:53 Cloudy with Haze 31 -0.6 26 -3.3 82 82 N 13 20 29.71 1006 6 10 0.00 0.00
7:11 pm 19:11 Cloudy with Mist and Fog 31 -0.6 27 -2.8 85 85 N 10 17 29.72 1006 6 10 0.00 0.00
7:53 pm 19:53 Cloudy with Mist and Fog 30 -1.1 27 -2.8 88 88 N 12 19 29.66 1004 6 10 0.00 0.00
8:42 pm 20:42 Cloudy with Mist and Fog 30 -1.1 26 -3.3 85 85 N 17 28 29.63 1003 6 10 0.00 0.00
8:53 pm 20:53 Cloudy with Mist and Fog 30 -1.1 26 -3.3 85 85 N 15 24 29.60 1003 6 10 0.00 0.00
9:42 pm 21:42 Cloudy with Mist and Fog 30 -1.1 26 -3.3 85 85 N 15 24 29.60 1002 6 10 0.00 0.00
9:53 pm 21:53 Cloudy with Mist and Fog 30 -1.1 26 -3.3 85 85 N 12 19 29.58 1002 6 10 0.00 0.00
10:31 pm 22:31 Cloudy with Light Snow 30 -1.1 26 -3.3 85 85 NNW 12 19 29.61 1003 2 3 0.00 0.03
10:41 pm 22:41 Cloudy with Light Snow 30 -1.1 27 -2.8 88 88 NNW 12 19 29.61 1003 1 2 0.00 0.03
10:53 pm 22:53 Cloudy with Light Snow 30 -1.1 27 -2.8 88 88 NNW 13 20 29.59 1002 1 2 0.01 0.25
11:01 pm 23:01 Cloudy with Light Snow 30 -1.1 27 -2.8 88 88 NW 12 19 29.61 1003 1 2 0.01 0.25
11:13 pm 23:13 Cloudy with Light Snow 29 -1.7 27 -2.8 92 92 NW 12 19 29.61 1003 1 1 0.02 0.51
11:20 pm 23:20 Cloudy with Light Snow 29 -1.7 27 -2.8 92 92 NW 14 22 29.60 1002 1 1 0.03 0.76
11:53 pm 23:53 Mostly Cloudy with Snow 29 -1.7 27 -2.8 92 92 NNW 16 26 29.57 1001 1 1 0.07 1.78

Powered by AerisWeather